Content
SEND FEEDBACK

Daily
Averages
Monthly
Summary
Malaysia

KOTA KINABALU, MALAYSIA


Home > Asia > Malaysia
Elevation: 10 feet     Latitude: 05 55N     Longitude: 116 03E

WEATHER
 
SELECT A DAY
Number of Records: 281,400;   Date Range: 8/9/96 - 12/25/14
 
SHARE

PRINT THIS DATA

[ ← Previous Day ]
WEATHER ALMANAC - APRIL 27, 2013
[ Next Day → ]
[ °C ]   °F
Weather ElementAverageHighLow
Temperature83.2 °F91.4 °F (12:30 pm)75 °F (5:00 am)
Dewpoint75.5 °F78.8 °F (12:30 pm)71.6 °F (2:00 am)
Humidity77.5 %94 % (3:00 am)59 % (2:00 pm)
Barometer29.81 in29.86 in (12:30 am)29.74 in (2:30 pm)
Wind Speed4.3 mph6.9 mph (5:30 am)
Weather ElementAverage
Visibility7.2 mi
Wind DirectionSSW (194.2 °)

Weather ElementTotal
Precipitation---
Cooling Degree Days18.2 (Base 65)
Growing Degree Days33.2 (Base 50)
Averaged from 55 records on April 27, 2013
WEATHER CONDITIONS BREAKOUT
WIND DIRECTION BREAKOUT
WEATHER BY HOUR - APRIL 27, 2013
[ °C ]   °F
Local TimeTemperatureDewpointHumidityBarometerVisibilityWind DirectionWind SpeedGust SpeedPrecipitationEventsConditions
12:30 AM77.0 °F73.4 °F89 %29.86 in6.2 miESE (110°)3.5 mphMostly Cloudy
1:00 AM77.0 °F73.4 °F89 %29.83 in6.2 miESE (110°)4.6 mphMostly Cloudy
1:30 AM77.0 °F73.4 °F89 %29.83 in6.2 miESE (110°)4.6 mphMostly Cloudy
2:00 AM76.0 °F72.0 °F85 %29.84 in11.0 miESE (110°)5.8 mphScattered Clouds
2:00 AM75.2 °F71.6 °F89 %29.83 in6.2 miESE (110°)5.8 mphMostly Cloudy
2:30 AM75.2 °F71.6 °F89 %29.83 in6.2 miEast (100°)5.8 mphMostly Cloudy
3:00 AM75.2 °F73.4 °F94 %29.83 in6.2 miEast (100°)4.6 mphMostly Cloudy
3:30 AM75.2 °F71.6 °F89 %29.83 in6.2 miESE (110°)4.6 mphMostly Cloudy
4:00 AM75.2 °F71.6 °F89 %29.80 in6.2 miEast (100°)4.6 mphMostly Cloudy
4:30 AM75.2 °F71.6 °F89 %29.83 in6.2 miEast (100°)5.8 mphMostly Cloudy
5:00 AM75.0 °F72.0 °F87 %29.84 in11.0 miEast (100°)4.6 mphPartly Cloudy
5:00 AM75.2 °F71.6 °F89 %29.83 in6.2 miEast (100°)4.6 mphMostly Cloudy
5:30 AM75.2 °F71.6 °F89 %29.83 in6.2 miESE (110°)6.9 mphMostly Cloudy
6:00 AM75.2 °F71.6 °F89 %29.83 in6.2 miESE (110°)6.9 mphMostly Cloudy
6:30 AM75.2 °F71.6 °F89 %29.83 in6.2 miESE (110°)6.9 mphMostly Cloudy
7:00 AM75.2 °F71.6 °F89 %29.83 in6.2 miESE (110°)5.8 mphMostly Cloudy
7:30 AM80.6 °F73.4 °F79 %29.83 in6.2 miEast (100°)4.6 mphMostly Cloudy
8:00 AM82.0 °F74.0 °F69 %29.86 in17.0 miSE (130°)4.6 mphScattered Clouds
8:00 AM82.4 °F73.4 °F74 %29.86 in6.2 miSE (130°)4.6 mphMostly Cloudy
8:30 AM84.2 °F75.2 °F74 %29.86 in6.2 miSW (220°)2.3 mphMostly Cloudy
9:00 AM84.2 °F75.2 °F74 %29.86 in6.2 miWest (260°)2.3 mphMostly Cloudy
9:30 AM86.0 °F75.2 °F70 %29.86 in6.2 miWSW (240°)2.3 mphMostly Cloudy
10:00 AM87.8 °F75.2 °F66 %29.86 in6.2 miWSW (240°)4.6 mphMostly Cloudy
10:30 AM87.8 °F77.0 °F70 %29.86 in6.2 miWest (260°)3.5 mphMostly Cloudy
11:00 AM89.0 °F77.0 °F60 %29.85 in17.0 miWest (260°)3.5 mphScattered Clouds
11:00 AM89.6 °F77.0 °F66 %29.83 in6.2 miWest (260°)3.5 mphMostly Cloudy
11:30 AM89.6 °F77.0 °F66 %29.83 in6.2 miWest (280°)3.5 mphMostly Cloudy
12:00 PM89.6 °F77.0 °F66 %29.80 in6.2 miWest (280°)3.5 mphMostly Cloudy
12:30 PM91.4 °F78.8 °F66 %29.80 in6.2 miWest (280°)3.5 mphMostly Cloudy
1:00 PM91.4 °F78.8 °F66 %29.77 in6.2 miWNW (290°)4.6 mphMostly Cloudy
1:30 PM91.4 °F78.8 °F66 %29.77 in6.2 miWNW (300°)4.6 mphMostly Cloudy
2:00 PM91.0 °F78.0 °F59 %29.77 in17.0 miNW (310°)5.8 mphScattered Clouds
2:00 PM91.4 °F78.8 °F66 %29.77 in6.2 miNW (310°)5.8 mphMostly Cloudy
2:30 PM91.4 °F77.0 °F63 %29.74 in6.2 miNW (310°)5.8 mphMostly Cloudy
3:00 PM91.4 °F78.8 °F66 %29.74 in6.2 miWNW (300°)4.6 mphMostly Cloudy
3:30 PM91.4 °F78.8 °F66 %29.74 in6.2 miNW (310°)4.6 mphMostly Cloudy
4:00 PM89.6 °F78.8 °F70 %29.77 in6.2 miNW (320°)6.9 mphMostly Cloudy
4:30 PM87.8 °F77.0 °F70 %29.74 in6.2 miNW (320°)6.9 mphMostly Cloudy
5:00 PM87.0 °F77.0 °F65 %29.77 in9.0 miNW (320°)5.8 mphPartly Cloudy
5:00 PM86.0 °F77.0 °F74 %29.77 in6.2 miNW (320°)5.8 mphMostly Cloudy
5:30 PM86.0 °F77.0 °F74 %29.77 in6.2 miNorth (360°)3.5 mphMostly Cloudy
6:00 PM86.0 °F77.0 °F74 %29.77 in6.2 miNorth (350°)2.3 mphMostly Cloudy
6:30 PM86.0 °F77.0 °F74 %29.77 in6.2 miNorth (350°)2.3 mphMostly Cloudy
7:00 PM84.2 °F77.0 °F79 %29.80 in6.2 miNorth (10°)2.3 mphMostly Cloudy
7:30 PM84.2 °F77.0 °F79 %29.80 in6.2 miNorth (360°)1.2 mphMostly Cloudy
8:00 PM85.0 °F77.0 °F70 %29.82 in11.0 miNorth2.3 mphPartly Cloudy
8:00 PM84.2 °F77.0 °F79 %29.80 in6.2 miNorth (360°)2.3 mphMostly Cloudy
8:30 PM84.2 °F77.0 °F79 %29.83 in6.2 miNNE (20°)2.3 mphMostly Cloudy
9:00 PM84.2 °F77.0 °F79 %29.83 in6.2 miESE (120°)2.3 mphMostly Cloudy
9:30 PM82.4 °F77.0 °F84 %29.83 in6.2 miESE (110°)3.5 mphMostly Cloudy
10:00 PM82.4 °F77.0 °F84 %29.83 in6.2 miESE (120°)2.3 mphMostly Cloudy
10:30 PM80.6 °F77.0 °F89 %29.83 in6.2 miSE (130°)3.5 mphMostly Cloudy
11:00 PM81.0 °F77.0 °F84 %29.85 in11.0 miESE (110°)4.6 mphScattered Clouds
11:00 PM80.6 °F77.0 °F89 %29.83 in6.2 miESE (110°)4.6 mphMostly Cloudy
11:30 PM80.6 °F77.0 °F89 %29.83 in6.2 miESE (120°)3.5 mphMostly Cloudy
Hourly data recorded from WBKK, located miles away from Kota Kinabalu, Malaysia







STORIES FROM OUR PARTNERS